M0CJS Weather Reports


Display with metric or nautical units.
time (UTC)temp
F
wind
direction
speed
MPH
gust
MPH
rain 1hr
in
rain 24hr
in
rain mn
in
humidity
%
barometer
mb
20260906165015 76 203 5.0 18.0 0.00 0.00 0.00 54 1017.8
20260906164015 76 158 1.0 3.0 0.00 0.00 0.00 57 1017.8
20260906163015 76 158 2.0 6.0 0.00 0.00 0.00 56 1017.9
20260906162015 76 158 2.0 6.0 0.00 0.00 0.00 56 1017.9
20260906161017 75 158 1.0 4.0 0.00 0.00 0.00 57 1018.1
20260906160017 75 158 1.0 4.0 0.00 0.00 0.00 58 1018.4
20260906155017 75 180 3.0 8.0 0.00 0.00 0.00 56 1018.7
20260906154017 77 203 4.0 14.0 0.00 0.00 0.00 55 1018.9
20260906153037 77 203 6.0 14.0 0.00 0.00 0.00 55 1018.9
20260906152017 76 203 7.0 14.0 0.00 0.00 0.00 54 1019.1
20260906151017 76 203 6.0 14.0 0.00 0.00 0.00 54 1019.4
20260906150017 78 203 5.0 9.0 0.00 0.00 0.00 53 1019.5
20260906145037 77 225 6.0 14.0 0.00 0.00 0.00 50 1019.6
20260906144017 77 203 5.0 11.0 0.00 0.00 0.00 52 1019.8
20260906143037 76 203 7.0 14.0 0.00 0.00 0.00 55 1020.0
20260906142017 75 203 6.0 13.0 0.00 0.00 0.00 55 1019.9
20260906141037 75 203 9.0 14.0 0.00 0.00 0.00 53 1019.9
20260906140017 76 180 3.0 7.0 0.00 0.00 0.00 55 1019.9
20260906135017 76 203 7.0 13.0 0.00 0.00 0.00 53 1020.3
20260906134017 77 180 7.0 18.0 0.00 0.00 0.00 53 1020.4
20260906133037 77 158 4.0 11.0 0.00 0.00 0.00 54 1020.7
20260906132017 75 203 5.0 12.0 0.00 0.00 0.00 55 1020.9
20260906131017 74 158 3.0 7.0 0.00 0.00 0.00 62 1021.0
20260906130017 74 158 4.0 11.0 0.00 0.00 0.00 62 1021.0
20260906125017 73 203 4.0 11.0 0.00 0.00 0.00 62 1021.0
20260906124017 72 203 6.0 13.0 0.00 0.00 0.00 61 1021.1
20260906123017 71 203 4.0 10.0 0.00 0.00 0.00 63 1021.3
20260906122017 71 158 2.0 7.0 0.00 0.00 0.00 63 1021.5
20260906121017 71 203 8.0 15.0 0.00 0.00 0.00 62 1021.6
20260906120017 72 180 4.0 11.0 0.00 0.00 0.00 63 1021.7
20260906115037 71 203 6.0 14.0 0.00 0.00 0.00 65 1021.8
20260906114017 69 203 3.0 6.0 0.00 0.00 0.00 69 1021.7
20260906113037 68 203 5.0 13.0 0.00 0.00 0.00 71 1021.9
20260906112017 69 203 6.0 13.0 0.00 0.00 0.00 67 1022.1
20260906111017 70 203 9.0 19.0 0.00 0.00 0.00 64 1022.2
20260906110036 71 203 8.0 18.0 0.00 0.00 0.00 63 1022.2
20260906105017 70 203 7.0 22.0 0.00 0.00 0.00 68 1022.4
20260906104036 71 225 9.0 17.0 0.00 0.00 0.00 65 1022.4
20260906103016 72 203 6.0 16.0 0.00 0.00 0.00 66 1022.5
20260906102016 68 158 4.0 10.0 0.00 0.00 0.00 72 1022.4
20260906101016 68 203 10.0 21.0 0.00 0.00 0.00 70 1022.7
20260906100017 69 203 7.0 21.0 0.00 0.00 0.00 69 1022.8
20260906095016 70 203 7.0 23.0 0.00 0.00 0.00 70 1022.7
20260906094016 68 180 4.0 10.0 0.00 0.00 0.00 71 1022.9
20260906093036 68 203 5.0 15.0 0.00 0.00 0.00 71 1023.0
20260906092016 68 180 5.0 12.0 0.00 0.00 0.00 70 1022.9
20260906091016 66 180 6.0 18.0 0.00 0.00 0.00 72 1022.9
20260906090036 64 158 5.0 10.0 0.00 0.00 0.00 75 1023.0
20260906085016 65 180 6.0 15.0 0.00 0.00 0.00 74 1023.2
20260906084016 64 135 4.0 11.0 0.00 0.00 0.00 75 1023.2
20260906083016 65 158 4.0 11.0 0.00 0.00 0.00 74 1023.1
20260906082016 65 180 3.0 11.0 0.00 0.00 0.00 75 1023.2
20260906081016 63 158 3.0 9.0 0.00 0.00 0.00 76 1023.2
20260906080016 63 158 3.0 9.0 0.00 0.00 0.00 77 1023.4
20260906075016 63 158 2.0 6.0 0.00 0.00 0.00 80 1023.3
20260906074016 61 180 1.0 5.0 0.00 0.00 0.00 84 1023.2
20260906073016 59 158 1.0 5.0 0.00 0.00 0.00 85 1023.1
20260906072036 58 180 1.0 5.0 0.00 0.00 0.00 88 1023.2
20260906071016 57 158 1.0 4.0 0.00 0.00 0.00 88 1023.3
20260906070016 57 158 1.0 2.0 0.00 0.00 0.00 90 1023.2
20260906065016 57 158 1.0 4.0 0.00 0.00 0.00 88 1023.3
20260906064016 57 158 2.0 5.0 0.00 0.00 0.00 87 1023.2
20260906063016 57 180 1.0 4.0 0.00 0.00 0.00 87 1023.3
20260906062016 57 0.0 3.0 0.00 0.00 0.00 88 1023.4
20260906061016 57 180 1.0 3.0 0.00 0.00 0.00 87 1023.5
20260906060036 57 0.0 3.0 0.00 0.00 0.00 86 1023.6
20260906055036 56 158 2.0 4.0 0.00 0.00 0.00 86 1023.7
20260906054016 56 158 1.0 3.0 0.00 0.00 0.00 87 1023.7
20260906053016 56 180 1.0 3.0 0.00 0.00 0.00 86 1023.8
20260906052016 56 158 1.0 3.0 0.00 0.00 0.00 86 1023.9
20260906051016 56 158 1.0 4.0 0.00 0.00 0.00 86 1024.2
20260906050016 56 158 1.0 3.0 0.00 0.00 0.00 87 1024.1
20260906045016 56 180 1.0 4.0 0.00 0.00 0.00 87 1024.1
20260906044036 56 0.0 2.0 0.00 0.00 0.00 87 1024.1
20260906043016 55 0.0 3.0 0.00 0.00 0.00 87 1024.1
20260906042015 55 0.0 2.0 0.00 0.00 0.00 87 1024.1
20260906041016 55 0.0 2.0 0.00 0.00 0.00 87 1024.3
20260906040036 55 0.0 3.0 0.00 0.00 0.00 87 1024.4
20260906035016 55 0.0 0.0 0.00 0.00 0.00 87 1024.3
20260906034016 55 158 1.0 3.0 0.00 0.00 0.00 87 1024.4
20260906033016 55 203 4.0 7.0 0.00 0.00 0.00 86 1024.5
20260906032015 56 203 5.0 9.0 0.00 0.00 0.00 85 1024.7
20260906031016 56 180 1.0 3.0 0.00 0.00 0.00 86 1024.7
20260906030016 56 158 2.0 6.0 0.00 0.00 0.00 85 1024.9
20260906025015 56 180 2.0 4.0 0.00 0.00 0.00 85 1025.0
20260906024035 56 158 1.0 5.0 0.00 0.00 0.00 85 1025.0
20260906023015 56 158 1.0 5.0 0.00 0.00 0.00 84 1025.1
20260906022016 56 158 1.0 4.0 0.00 0.00 0.00 84 1025.2
20260906021015 56 158 1.0 3.0 0.00 0.00 0.00 84 1025.2
20260906020015 57 158 1.0 2.0 0.00 0.00 0.00 84 1025.2
20260906015015 57 158 1.0 3.0 0.00 0.00 0.00 84 1025.4
20260906014015 57 158 1.0 3.0 0.00 0.00 0.00 83 1025.3
20260906013015 57 0.0 1.0 0.00 0.00 0.00 83 1025.6
20260906012055 57 0.0 2.0 0.00 0.00 0.00 84 1025.5
20260906011015 57 158 1.0 3.0 0.00 0.00 0.00 84 1025.7
20260906010015 57 0.0 2.0 0.00 0.00 0.00 83 1025.9
20260906005015 57 0.0 2.0 0.00 0.00 0.00 83 1026.2
20260906004015 57 180 2.0 4.0 0.00 0.00 0.00 83 1026.2
20260906003015 57 180 1.0 3.0 0.00 0.00 0.00 83 1026.4
20260906002015 58 0.0 1.0 0.00 0.00 0.00 82 1026.4
20260906001017 58 0.0 0.0 0.00 0.00 0.00 82 1026.6
20260906000017 58 0.0 0.0 0.00 0.00 0.00 82 1026.5
20260905235057 57 0.0 0.0 0.00 0.00 0.00 83 1026.4
20260905234037 57 0.0 1.0 0.00 0.00 0.00 82 1026.3
20260905233017 57 0.0 1.0 0.00 0.00 0.00 82 1026.5
20260905232017 57 0.0 1.0 0.00 0.00 0.00 83 1026.6
20260905231037 57 0.0 0.0 0.00 0.00 0.00 83 1026.5
20260905230017 58 0.0 1.0 0.00 0.00 0.00 81 1026.4
20260905225015 57 0.0 1.0 0.00 0.00 0.00 82 1026.5
20260905224015 58 225 1.0 2.0 0.00 0.00 0.00 82 1026.5
20260905223015 58 203 1.0 2.0 0.00 0.00 0.00 82 1026.5
20260905222015 58 225 1.0 5.0 0.00 0.00 0.00 81 1026.5
20260905221037 58 0.0 0.0 0.00 0.00 0.00 81 1026.6
20260905220017 58 0.0 0.0 0.00 0.00 0.00 81 1026.4
20260905215017 59 338 1.0 2.0 0.00 0.00 0.00 79 1026.3
20260905214017 58 23 1.0 2.0 0.00 0.00 0.00 80 1026.5
20260905213017 59 0 1.0 2.0 0.00 0.00 0.00 80 1026.5
20260905212017 59 23 1.0 3.0 0.00 0.00 0.00 79 1026.6
20260905211017 59 0.0 2.0 0.00 0.00 0.00 80 1026.6
20260905210037 59 315 1.0 2.0 0.00 0.00 0.00 79 1026.5
20260905205017 60 0.0 1.0 0.00 0.00 0.00 77 1026.3
20260905204017 61 203 2.0 4.0 0.00 0.00 0.00 74 1026.2
20260905203017 61 203 2.0 5.0 0.00 0.00 0.00 73 1026.1
20260905202017 61 225 3.0 4.0 0.00 0.00 0.00 74 1026.2
20260905201017 61 203 2.0 4.0 0.00 0.00 0.00 74 1026.0
20260905200037 61 0.0 1.0 0.00 0.00 0.00 74 1026.0
20260905195017 62 225 3.0 4.0 0.00 0.00 0.00 71 1025.9
20260905194017 63 225 3.0 7.0 0.00 0.00 0.00 70 1026.2
20260905193017 63 225 3.0 4.0 0.00 0.00 0.00 70 1026.0
20260905192017 63 203 3.0 6.0 0.00 0.00 0.00 70 1026.0
20260905191057 64 225 2.0 5.0 0.00 0.00 0.00 69 1025.9
20260905190017 64 203 2.0 4.0 0.00 0.00 0.00 69 1025.9
20260905185017 64 225 3.0 5.0 0.00 0.00 0.00 69 1025.7
20260905184017 64 203 3.0 6.0 0.00 0.00 0.00 69 1025.8
20260905183017 64 225 2.0 3.0 0.00 0.00 0.00 69 1025.7
20260905182017 65 0.0 3.0 0.00 0.00 0.00 68 1025.6
20260905181017 65 180 1.0 2.0 0.00 0.00 0.00 68 1025.6
20260905180017 65 0.0 2.0 0.00 0.00 0.00 68 1025.6
20260905175016 65 0.0 2.0 0.00 0.00 0.00 70 1025.6
20260905174016 66 293 1.0 3.0 0.00 0.00 0.00 67 1025.6
20260905173016 67 270 2.0 3.0 0.00 0.00 0.00 64 1025.6
20260905172036 67 293 4.0 6.0 0.00 0.00 0.00 63 1025.6
20260905171017 69 248 1.0 4.0 0.00 0.00 0.00 61 1025.3
20260905170037 69 270 2.0 4.0 0.00 0.00 0.00 59 1025.3